This is the latest recevied weather packets stored in our database for station/object K7AEL. If no packets are shown the sender has not sent any weather packets the latest 10 day(s).
| Time | Temp. | Humidity | Pressure | Rain* | Wind** | Luminosity | Snow |
|---|---|---|---|---|---|---|---|
| 1778089751 | 22.78° C | 33% | 1017.5 hPa | 0 mm | - | 697 W/m² | - |
| 1778089449 | 23.33° C | 32% | 1017.5 hPa | 0 mm | - | 689 W/m² | - |
| 1778089146 | 22.78° C | 33% | 1017.5 hPa | 0 mm | - | 682 W/m² | - |
| 1778088843 | 22.78° C | 33% | 1017.6 hPa | 0 mm | - | 672 W/m² | - |
| 1778088540 | 22.22° C | 35% | 1017.9 hPa | 0 mm | - | 667 W/m² | - |
| 1778088236 | 22.22° C | 35% | 1017.8 hPa | 0 mm | - | 653 W/m² | - |
| 1778087934 | 21.67° C | 35% | 1017.8 hPa | 0 mm | - | 646 W/m² | - |
| 1778087630 | 21.11° C | 36% | 1017.6 hPa | 0 mm | - | 633 W/m² | - |
| 1778087328 | 21.67° C | 36% | 1017.6 hPa | 0 mm | - | 626 W/m² | - |
| 1778087024 | 21.67° C | 37% | 1017.8 hPa | 0 mm | - | 613 W/m² | - |
| 1778086718 | 21.11° C | 37% | 1017.6 hPa | 0 mm | - | 606 W/m² | - |
| 1778086415 | 21.11° C | 37% | 1017.5 hPa | 0 mm | - | 594 W/m² | - |
| 1778086112 | 21.11° C | 38% | 1018 hPa | 0 mm | - | 580 W/m² | - |
| 1778085808 | 21.67° C | 38% | 1017.8 hPa | 0 mm | - | 569 W/m² | - |
| 1778085506 | 21.11° C | 38% | 1017.5 hPa | 0 mm | - | 557 W/m² | - |
| 1778085200 | 21.11° C | 39% | 1017.4 hPa | 0 mm | - | 540 W/m² | - |
| 1778084896 | 21.11° C | 38% | 1017.6 hPa | 0 mm | - | 525 W/m² | - |
| 1778084594 | 20.56° C | 40% | 1017.5 hPa | 0 mm | - | 517 W/m² | - |
| 1778084285 | 21.11° C | 39% | 1017.5 hPa | 0 mm | - | 501 W/m² | - |
| 1778083983 | 20° C | 39% | 1017.4 hPa | 0 mm | - | 488 W/m² | - |
| 1778083680 | 20.56° C | 39% | 1017.5 hPa | 0 mm | - | 473 W/m² | - |
| 1778083376 | 20.56° C | 40% | 1017.4 hPa | 0 mm | - | 461 W/m² | - |
| 1778083075 | 20.56° C | 40% | 1017.5 hPa | 0 mm | - | 446 W/m² | - |
| 1778082766 | 21.11° C | 40% | 1017.3 hPa | 0 mm | - | 431 W/m² | - |
| 1778081639 | 18.33° C | 47% | 1017.4 hPa | 0 mm | - | 369 W/m² | - |
* Rain latest hour (hover to see other rain measurements)
** Current wind speed in m/s (hover to see current wind gust speed)